Regional Weather Roundup
Issued by NWS Charleston, SC

Current Version | Previous Version | Text Only | Print | Product List | Glossary On
Versions: 1 2 3 4 5 6 7 8 9 10 11 12 13 14 15 16 17 18 19 20 21 22 23 24 25 26 27 28 29 30 31 32 33 34 35 36 37 38 39 40 41 42 43 44 45 46 47 48 49 50
000 ASUS42 KCHS 300825 RWRCHS REGIONAL WEATHER ROUNDUP NATIONAL WEATHER SERVICE CHARLESTON SC 400 AM EDT SAT AUG 30 2014 NOTE: "FAIR" INDICATES FEW OR NO CLOUDS BELOW 12,000 FEET WITH NO SIGNIFICANT WEATHER AND/OR OBSTRUCTIONS TO VISIBILITY. NOT ALL STATIONS ARE QUALITY CONTROLLED BY THE NATIONAL WEATHER SERVICE. USE DATA WITH CAUTION...ESPECIALLY DEWPOINT OBSERVATIONS. SCZ027-030-031-034>040-042>050-300900- ...SOUTH CAROLINA... CITY SKY/WX TMP DP RH WIND PRES REMARKS N CHARLESTON PTCLDY 77 74 90 CALM 30.13S WATERFRONT PRK N/A 81 N/A N/A SE3 N/A FORT JOHNSON NOT AVBL MOUNT PLEASANT LGT RAIN 73 72 94 CALM 30.13S JOHNS ISLAND SUNNY 75 73 94 CALM 30.13S FOG PINOPOLIS N/A 79 75 89 CALM 30.04F MONCKS CORNER N/A 73 73 100 CALM 30.13S FOG SUMMERVILLE FAIR 70 70 100 CALM 30.14S BEAUFORT MCAS CLEAR 76 73 91 CALM 30.12S BEAUFORT ARPT FAIR 77 77 100 CALM 30.12R HILTON HEAD IS CLEAR 77 75 94 CALM 30.13S GEORGETOWN NOT AVBL WALTERBORO SUNNY 70 N/A N/A CALM 30.14S ORANGEBURG CLEAR 71 68 90 CALM 30.14F BARNWELL PTSUNNY 73 70 88 CALM 30.14S AIKEN FAIR 72 72 100 CALM 30.17F MANNING CLOUDY 72 N/A N/A CALM 30.14S KINGSTREE NOT AVBL COLUMBIA PTCLDY 75 68 78 CALM 30.13F SUMTER PTCLDY 72 72 100 NE5 30.14R FLORENCE PTCLDY 74 71 91 CALM 30.14F MYRTLE BEACH PTCLDY 77 73 88 CALM 30.14S N MYRTLE BEACH CLEAR 77 75 93 CALM 30.14S $$ GAZ063-065-086>088-099>101-113>116-118-119-134-136>141-150-300900- ...GEORGIA... CITY SKY/WX TMP DP RH WIND PRES REMARKS SAVANNAH ARPT CLEAR 76 73 91 CALM 30.11F HUNTER AAF CLEAR 75 74 96 CALM 30.09F FORT STEWART CLEAR 74 72 93 S3 30.10S STATESBORO NOT AVBL SYLVANIA SUNNY 69 69 100 CALM 30.13S CLAXTON NOT AVBL THOMSON CLEAR 74 73 98 CALM 30.16S AUGUSTA-BUSH CLEAR 70 69 97 CALM 30.12F AUGUSTA-DANIEL CLEAR 75 71 87 E6 30.13F SWAINSBORO FAIR 77 77 100 CALM 30.13R VIDALIA N/A 73 72 94 CALM 30.13R ALMA MOCLDY 76 73 91 CALM 30.10S WAYCROSS MOCLDY 79 78 96 CALM 30.10S JESUP N/A 75 73 94 CALM 30.10F BRUNSWICK PTCLDY 75 72 88 CALM 30.11S SAINT SIMONS CLEAR 78 75 90 CALM 30.10F $$ SCZ027-028-034-036>038-045-046-048>050-GAZ119-141-300900- ...LAKE AND SUPPLEMENTAL COASTAL OBSERVATIONS... STATION/POSITION TIME TEMP WIND PRES WAVE SWELL AIR SEA DIR/SP/G HT/PER HT/PER/DIR (UTC) (F) (DEG/KT/KT) (MB) (FT/S) (FT/S/D) UPR LAKE MARION NOT AVBL WINYAH BAY 0800 77 290/ 1 1020.0S LAKE MURRAY 0800 77 80/ 3/ 5 1020.0S ACE BASIN NERRS 0800 75 CALM 1020.0S FORT PULASKI 0800 81 110/ 1/ 2 1019.8S SAPELO ISLAND 0800 80 270/ 1 1020.0S $$ ANZ835-935-AMZ111-154-330-350-352-354-374-450-454-472-300900- ...C-MAN AND BUOY OBSERVATIONS... STATION/POSITION TIME TEMP WIND PRES WAVE SWELL AIR SEA DIR/SP/G HT/PER HT/PER/DIR (UTC) (F) (DEG/KT/KT) (MB) (FT/S) (FT/S/D) FOLLY BEACH CMAN 0800 81 150/ 2/ 4 1020.5F BUOY 41004 0800 82 83 CALM / 4 1019.8S 3/ 8 BUOY 41008 0800 83 84 180/ 8/ 10 1019.4F 2/ 8 2/110/ 8 5E ST. MARYS GA 0800 84 N/A 2/ 9 FRYING PAN BUOY NOT AVBL BUOY 41025 0800 79 20/ 10/ 12 1021.2F 4/ 8 3/ 80/ 8 CAPE LOOKOUT NC 0800 80 70/ 3/ 3 1021.1F BUOY 41002 0705 80 82 120/ 4/ 6 1021.5F 3/ 8 3/120/ 8 BUOY 41010 0800 81 83 110/ 4/ 6 1019.0R 3/ 8 3/ 90/ 8 BUOY 41012 NOT AVBL ST AUGUSTINE FL 0800 75 240/ 2/ 3 1019.7F CAPERS NEARSHORE 0700 81 150/ 2/ 4 N/A FRIPP NEARSHORE NOT AVBL $$

USA.gov is the U.S. government's official web portal to all federal, state and local government web resources and services.